Location: Campo Elias
(10.1199°N, 67.0653°W)
Time: 06:18:12
(UTC+00:00)

Daily predictions for brighter satellites

Satellite Brightness Start Highest point End
(mag) Time Altitude Azimuth Time Altitude Azimuth Time Altitude Azimuth
Centaur D AC-29 3.4 21:35:54 10° W 21:40:50 65° NNW 22:13:50 10° ENE
Centaur D AC-29 3.4 21:35:53 10° W 21:40:50 65° NNW 22:13:50 10° ENE
ATLAS 5 CENTAUR R/B 3.5 22:19:48 10° SW 22:23:13 54° NW 22:33:18 10° NNE
MOS 1 Rocket 3.6 22:20:02 10° SSE 22:24:12 41° ENE 22:28:34 10° N
SPOT 1/Viking Rocket 4.5 22:22:42 10° SE 22:26:57 26° ENE 22:31:13 10° NNE
IRS-1C 4.1 22:23:24 10° SSE 22:28:41 71° ENE 22:33:58 10° N
Delta 7925 Rocket 3.1 22:25:14 10° WNW 22:30:01 71° NNE 22:34:38 10° ESE
ARIANE 5 R/B 2.4 22:25:12 10° SSE 22:30:10 76° ENE 22:35:09 10° N
ARIANE 5 DEB (SYLDA) 4.5 22:28:27 10° SW 22:30:37 27° SSE 22:34:13 10° ESE
NATO 3D Rocket 3.7 22:27:51 10° WNW 22:32:21 46° NNE 22:37:27 10° E
Hubble Space Telescope 1.2 22:28:54 10° WSW 22:32:34 48° NNW 22:36:14 10° NE
IRIDIUM 106 4.3 22:27:28 10° N 22:32:38 68° E 22:37:48 10° S
IRIS 3.5 22:31:37 10° NNW 22:33:25 33° NE 22:35:14 10° ESE
Cosmos 2266 Rocket 4.3 22:29:00 10° NNE 22:34:42 43° E 22:40:22 10° SSE
SWIFT 2.7 22:32:15 10° NW 22:35:16 30° NNE 22:38:12 11° ENE
Cosmos 1758 Rocket 3.5 22:33:30 10° N 22:37:46 90° E 22:42:02 10° S
SJ-6F 4.3 22:36:38 10° SSE 22:40:29 64° ENE 22:44:23 10° N
Cosmos 405 Rocket 3.2 22:38:45 10° NNW 22:41:52 51° W 22:44:57 10° S
Cosmos 372 Rocket 4.3 22:40:51 10° S 22:45:50 47° E 22:50:46 10° NNE
Cosmos-2242 3.8 22:43:19 10° SSE 22:46:56 29° E 22:50:34 10° NNE
USA 238 DEB 3.7 22:45:01 10° SSW 22:50:48 65° WNW 22:56:45 10° NNE
USA 238 3.7 22:45:06 10° SSW 22:50:54 66° WNW 22:56:53 10° NNE
Cosmos 2208 Rocket 4.4 22:46:56 10° N 22:51:43 38° ENE 22:56:32 10° SE
Helios 1A Rocket 3.3 22:48:50 10° N 22:52:07 50° WNW 22:55:25 10° SSW
Cosmos 773 Rocket 4.4 22:49:16 10° N 22:54:09 40° ENE 22:59:03 10° SE
Delta 202 4.1 22:49:41 10° WSW 22:55:27 80° SSE 23:01:46 17° ENE
Resurs 1-3 4.2 22:52:22 10° SE 22:56:13 33° ENE 23:00:04 10° NNE
Cosmos 2297 Rocket 3.2 22:53:38 10° NNE 22:58:00 23° ENE 23:02:21 10° ESE
Cosmos 2369 3.9 22:59:16 10° S 23:04:44 50° ESE 23:09:04 16° NE
Cosmos 1980 Rocket 2.4 22:59:50 10° SSW 23:05:30 74° WNW 23:11:09 10° N
ARIANE 6 FM1 Upper Stage 2.5 23:04:02 10° NNW 23:08:04 65° ENE 23:12:14 10° SSE
Okean 1-7 Rocket 3.4 23:06:34 10° N 23:10:55 85° E 23:15:16 10° S
Cosmos 1655 Rocket 4.1 23:10:28 10° N 23:16:28 52° E 23:22:28 10° SSE
Skynet4D Del rocket 4.2 23:12:29 10° WSW 23:18:33 65° NNW 23:22:28 27° NE
Ariane H10+ 3.7 23:07:38 10° WSW 23:18:36 36° S 23:21:03 18° SE
CAT/Thesee 2.7 23:20:34 10° W 23:22:33 90° SSW 23:22:39 82° E
Cosmos 2333 Rocket 4.2 23:20:05 10° SE 23:21:01 12° ESE 23:21:01 12° ESE
Spot 4 Rocket 3.9 23:21:22 10° SSE 23:26:28 89° ENE 23:31:33 10° NNW
Cosmos 1076 Rocket 3.6 23:27:24 46° ENE 23:27:59 50° E 23:32:10 10° SSE
IRAS Rocket 4.1 23:22:34 10° SSE 23:28:04 67° ENE 23:33:30 10° N
YAOGAN 1 2.9 23:30:08 10° S 23:34:20 63° W 23:38:31 10° NNW
DELTA 2 R/B (1) 3.8 23:29:13 10° NW 23:34:44 70° SW 23:39:38 13° SE
PSLV R/B 3.5 23:32:22 10° S 23:36:22 71° WSW 23:40:21 10° NNW
Cosmos 967 Rocket 4.4 23:30:14 10° SSW 23:36:29 83° WNW 23:40:14 26° NNE
SEDSat Delta rocket 4.0 23:34:16 10° SW 23:40:22 61° SSE 23:42:10 45° E
Meteor 2-6 Rocket 4.1 23:35:11 10° S 23:40:31 62° E 23:41:46 48° NE
GPS 2-17 Rocket1 3.7 23:36:48 10° W 23:40:54 45° SSW 23:42:14 34° SSE
Ariane H10+ 1.9 23:37:01 10° W 23:42:55 49° S 23:43:28 45° SSE
Centaur D-1AR AC-39 2.7 23:42:46 10° W 23:46:34 60° NNW 23:48:43 41° NE
COSMOS 2455 2.7 23:47:09 10° SSW 23:53:09 84° ESE 23:54:23 59° NNE
Cosmos 2221 4.3 23:50:13 10° S 23:51:37 20° SSE 23:51:37 20° SSE
